DELTA 1 DEB, 21320

Orbit data source: Space-Track

DELTA 1 DEB, 21320 is space debris in SSO originally from a launch on Thu, 12 Jun 1975 UTC launched from the Air Force Western Test Range (AFWTR). Debris objects in space refer to the collection of defunct objects orbiting the Earth. Examples of debris include non-operational satellites, rocket bodies, and fragments generated from explosions, collisions, or faulty payload assembly.

Loading next visibility...
DELTA 1 DEB details
Identifier
21320, 1975-052AN
Orbit
SSO
Last TLE update8 hours ago
Origin
Flag of USGSFC (US)
ManufacturerUnknown
MissionSpacecraft
Bus & MotorUnknown
MassUnknown
Launch date (UTC)
1975-06-12 (50 years ago)
Launch vehicleUnknown
Launch site
Air Force Western Test Range (AFWTR)
Object type
Payload
Rocket body
Debris
Shape & HBRUnknown
Radar Cross SectionSmall (<0.1 m²)

Expand to show TLE details & history

TLE from 8 hours ago
0 DELTA 1 DEB
1 21320U 75052AN  24361.20423958  .00000477  00000-0  52923-3 0  9998
2 21320  99.5756 230.5778 0128603  63.3458  55.0090 13.73371365681702
Epoch: 2024-12-26T04:54Z
Definitive object data (Epoch: 2024-12-26T04:54:06.299Z)
Latitude59.14602°
Longitude-101.82065°
Altitude943.934 km
Speed7.412 km/s
True Right ascension04h 27m 34s
True Declination58° 59' 54"
Sunlit
Object was in full shadow at TLE epoch
Visualization TLE readout
Latitude-55.88457°
Longitude76.53777°
Altitude1,054.61 km
Speed7.301 km/s
Apparent Right ascension20h 44m 54s
Apparent Declination-64° 55' 31"
Sunlit
Object is in daylight
Visualization observer readout
Local Sidereal Time12:09:31
Azimuth147.8° SSE
Elevation-51.728°
Doppler factor1
Orbital elements
Apogee altitude1,079.444 km
Perigee altitude890.066 km
Semi-major axis7,362.892 km
Eccentricity0.0128603
Inclination99.5756°
RAAN230.5778°
Arg. of periapsis63.3458°
True anomaly56.22744°
Mean anomaly55.009°
Eccentric anomaly55.6171°
Mean motion3.43535 °/min
BSTAR0.00052923
Orbital period104.79 mins
Loading maneuver chart data...
Loading historical data...
Loading historical data...
Loading historical data...
Loading historical data...
Loading historical data...
Loading historical data...
Loading historical data...

DELTA 1 DEB Visibility forecast

Observer location: undefined°, undefined

Span
Click to sort rows by Start time (UTC) header in descending order
Start Az.
Max El. time (UTC)
Max El. Az.
Max El.
End time (UTC)
End Az.
10 mins2024-12-26 14:56:57.077Z141.945° SSE2024-12-26 15:01:57.077Z53.211° ENE37.981°2024-12-26 15:06:57.077Z355.404° N
6 mins2024-12-26 16:42:57.077Z236.128° WSW2024-12-26 16:44:57.077Z261.987° W19.164°2024-12-26 16:48:57.077Z309.849° NW
9 mins2024-12-27 03:39:57.077Z39.366° NE2024-12-27 03:43:57.077Z93.095° ESE30.061°2024-12-27 03:48:57.077Z159.233° S
9 mins2024-12-27 05:23:57.077Z346.453° N2024-12-27 05:27:57.077Z285.133° WNW29.385°2024-12-27 05:32:57.077Z231.07° WSW
|